Wind_Speed
27 27 28 28 28 28 28 28 28 28 28 28 27 27 27 26 24 23 21 19 17 14 12 12 11 12 15 18 20 22 23 23 23 22 22 21 21 21 21 20 19 18 18 17 17 18 19 20 21 21 22 23 25 28 30 30 26 22 19 18 19 20 22 23 24 24 25 26 26
27 27 28 28 28 27 27 27 27 27 26 25 25 24 22 21 20 19 18 16 13 10 9 9 11 14 17 19 21 21 22 22 22 22 22 22 22 21 20 19 19 18 18 19 21 22 23 24 24 24 26 28 31 31 29 25 19 17 17 19 20 22 23 24 24 25 26 26 27
27 27 28 28 27 26 26 25 25 25 24 23 22 20 19 17 16 15 14 11 10 8 7 9 12 16 18 19 20 20 20 21 21 21 21 21 20 19 19 18 19 21 23 25 27 27 27 26 27 29 31 32 30 26 20 16 15 16 19 21 22 23 24 25 26 26 27 27 28
27 27 27 27 26 25 25 24 23 22 21 20 19 18 16 15 14 12 10 8 7 7 8 9 12 16 17 17 18 18 18 18 19 19 19 19 19 20 21 24 27 30 31 32 31 30 30 31 32 32 30 25 20 16 15 15 16 18 20 22 23 24 25 26 26 27 27 28 28
26 27 27 26 26 25 24 23 22 21 20 19 18 16 15 14 13 11 9 7 7 8 9 10 12 14 16 17 17 17 17 18 18 19 20 22 25 27 30 33 34 35 35 35 34 34 34 33 30 25 20 16 14 15 16 17 19 20 22 23 24 25 26 27 27 27 27 28 28
26 26 26 26 25 24 23 22 21 20 19 19 19 16 14 13 13 11 9 8 8 9 10 11 12 14 16 17 18 19 21 23 25 26 28 30 32 33 34 34 34 34 35 35 35 34 30 25 19 15 14 14 15 17 18 19 21 23 24 25 26 26 27 27 27 28 28 28 29
25 25 25 25 24 24 23 22 21 20 19 18 17 16 14 13 12 10 10 10 10 10 11 12 13 15 17 19 20 22 24 26 28 30 31 32 33 33 33 33 33 34 33 32 29 24 19 15 13 13 14 16 17 18 20 21 23 25 26 27 28 28 28 28 29 29 29 29 30
23 23 24 24 24 23 23 22 21 19 18 17 16 15 14 13 12 11 11 11 11 12 14 15 17 19 21 22 23 25 26 28 29 30 30 30 30 31 31 31 31 29 27 23 19 16 13 12 13 14 16 17 19 20 22 23 25 27 28 29 29 29 29 30 30 30 30 30 31
22 22 23 23 23 23 23 22 20 19 18 17 16 15 15 14 13 13 13 13 14 16 18 20 22 24 25 26 27 28 28 29 29 28 28 27 27 27 26 26 24 22 20 17 14 12 12 13 15 16 18 19 21 22 24 25 27 28 29 30 30 31 31 31 31 31 31 31 31
21 21 22 23 23 23 23 22 20 19 18 17 16 16 16 16 15 14 14 15 17 19 21 23 25 27 28 28 28 28 28 27 25 24 23 22 22 21 21 20 19 17 15 13 12 12 13 15 17 19 20 21 23 24 26 27 28 29 30 30 31 31 31 32 31 32 32 32 32
21 22 23 24 24 24 23 21 20 19 18 17 17 17 17 16 15 15 15 16 18 20 22 25 26 27 27 26 26 25 23 22 20 19 18 17 17 17 16 15 13 12 12 12 12 14 16 18 19 21 22 23 25 26 27 28 29 30 30 31 31 32 32 32 32 32 32 33 33
23 24 25 25 25 24 23 21 20 19 18 17 17 17 17 16 16 16 16 17 18 21 23 25 25 25 24 24 23 21 19 17 16 16 16 16 15 14 12 11 10 10 12 13 14 16 18 19 21 22 24 25 26 27 28 29 29 30 31 31 32 32 32 33 33 33 33 33 34
24 25 26 25 24 23 22 20 19 18 18 17 17 17 17 16 17 17 17 18 20 22 24 24 24 23 22 21 20 18 16 15 15 16 16 15 14 12 11 10 10 12 14 15 16 18 19 21 22 24 25 26 27 28 29 29 30 30 31 31 32 32 33 33 33 33 33 33 33
25 26 25 24 23 22 20 19 18 18 17 17 17 17 17 17 18 18 19 20 22 23 23 23 22 21 20 18 16 14 14 15 15 16 15 14 12 11 10 10 12 13 15 17 18 19 21 22 24 25 26 27 28 29 29 30 30 31 31 32 32 33 33 33 33 33 33 33 32
24 24 23 22 21 20 18 17 17 17 17 17 18 18 18 19 19 20 21 22 23 23 22 21 20 19 17 15 14 14 15 16 17 16 14 12 11 10 10 12 13 15 16 18 20 21 23 24 25 26 28 28 29 30 30 30 31 31 32 32 33 33 33 33 33 32 32 31 31
23 22 21 20 19 18 17 17 17 17 17 18 19 19 20 21 22 22 23 24 24 23 21 19 17 15 14 13 14 16 18 19 17 15 13 11 11 11 12 14 15 17 19 20 22 23 24 25 26 27 28 29 30 30 31 31 32 32 32 33 33 33 33 33 32 32 31 31 31
21 20 19 19 18 18 17 17 17 18 18 19 20 21 22 23 24 25 25 24 23 21 19 17 15 14 13 15 17 19 20 18 16 13 12 11 12 13 15 16 18 19 21 22 24 25 26 27 27 28 29 30 30 31 32 32 32 33 33 33 32 32 32 32 31 31 31 31 31
20 20 19 19 19 18 18 18 19 19 20 21 21 23 23 24 25 25 24 23 22 20 18 16 16 16 17 19 20 20 17 14 12 11 12 12 14 15 17 18 20 21 23 24 25 26 27 28 28 29 30 31 31 32 32 32 33 32 32 32 32 32 31 31 31 31 32 32 32
20 20 20 19 19 19 19 20 20 21 22 22 23 24 25 25 24 23 23 22 21 20 19 18 18 19 20 20 18 15 13 11 11 11 13 14 15 17 19 20 22 23 24 25 26 27 28 29 30 31 31 32 32 32 32 32 32 32 32 32 32 32 32 32 32 32 33 33 33
21 21 20 20 20 20 20 21 22 23 23 24 24 25 24 24 23 23 22 22 21 20 20 20 21 21 19 16 13 11 10 11 11 13 14 16 17 19 20 22 23 25 26 27 28 29 30 30 31 31 31 32 32 31 31 31 31 31 32 32 32 33 33 33 33 34 34 34 34
21 21 20 20 20 21 21 22 23 24 24 25 25 24 24 23 23 22 22 21 20 20 21 22 21 18 15 12 10 10 10 12 13 15 16 17 19 20 22 23 25 26 28 29 29 30 30 31 31 31 31 31 31 31 31 31 31 32 32 33 33 34 34 34 34 34 35 35 35
21 21 20 21 21 21 22 23 23 24 25 25 24 24 23 22 21 20 20 19 20 21 22 21 19 15 12 10 10 11 13 14 15 16 18 19 20 22 23 25 26 28 29 29 29 30 30 30 30 30 30 30 30 30 31 31 32 32 33 34 34 34 35 35 35 35 35 35 35
22 21 21 21 21 22 22 23 24 25 25 25 24 23 21 20 19 19 19 20 21 22 21 19 16 14 12 11 12 13 15 16 17 18 19 20 21 22 24 25 26 27 27 28 28 28 28 28 29 29 29 29 30 30 31 32 32 33 34 34 35 35 36 36 36 36 36 36 36
22 21 21 21 21 22 22 23 24 25 25 24 23 22 20 19 18 19 20 21 21 20 18 16 14 13 13 13 14 16 17 18 18 19 20 20 21 21 22 23 24 25 26 26 26 27 27 27 28 29 29 30 30 31 32 32 33 33 34 35 35 36 37 37 37 37 37 37 37
22 21 21 21 21 21 22 22 23 23 24 23 22 21 20 19 20 20 20 19 18 17 15 14 14 14 15 16 17 18 19 20 20 21 21 21 20 20 21 22 23 25 26 26 26 26 27 27 28 29 30 30 31 32 32 33 33 34 35 35 36 37 37 38 38 38 38 38 38
21 21 20 20 20 20 21 21 21 22 22 22 22 21 21 20 20 19 18 17 15 14 14 15 16 17 18 19 20 21 22 22 22 21 21 20 20 20 20 21 23 25 26 27 27 27 28 28 29 29 30 31 32 33 33 34 34 35 35 36 36 37 38 38 39 39 39 39 40
21 20 20 20 20 20 20 20 20 21 21 21 21 21 20 19 18 17 15 14 14 15 16 18 19 20 21 21 22 23 23 23 23 22 21 21 20 20 20 21 23 26 27 28 28 28 29 29 29 30 31 32 32 33 34 35 35 36 36 36 37 37 38 39 39 40 40 41 41
22 21 20 19 19 19 19 19 19 19 19 19 19 19 18 17 16 15 14 15 17 18 19 20 21 22 22 23 23 23 23 23 23 23 22 22 21 20 20 22 24 26 28 29 29 29 30 30 30 31 32 32 33 34 35 35 36 36 37 37 38 38 39 39 40 41 42 42 42
22 21 19 19 18 18 18 18 18 18 18 17 17 17 17 16 16 16 17 18 20 20 21 22 22 23 23 24 24 24 24 23 23 23 23 22 21 20 21 23 25 27 28 29 29 30 30 31 31 32 32 33 33 34 35 35 36 37 37 38 39 39 40 41 41 42 42 42 41
22 20 19 18 17 17 17 17 17 17 17 17 17 17 17 17 18 19 20 21 21 22 22 23 24 24 25 25 25 25 24 24 24 23 22 21 20 21 22 25 27 28 29 29 30 30 31 31 32 32 32 33 33 34 35 36 37 38 38 39 40 41 41 41 41 41 40 40 38
21 20 18 17 17 16 17 17 17 17 17 17 18 18 19 20 21 22 22 22 22 23 24 25 25 25 26 25 24 24 24 24 23 22 20 19 20 22 25 27 28 29 29 30 30 31 31 31 32 32 32 33 34 35 36 37 38 39 40 40 41 41 41 40 40 38 37 36 34
20 19 17 17 16 16 17 17 18 18 18 19 20 21 22 23 23 23 23 23 24 25 26 26 25 24 23 23 23 23 23 22 21 19 19 20 22 25 26 28 29 29 29 30 30 31 31 31 31 32 33 34 35 36 37 38 39 40 40 40 40 40 39 37 36 34 33 31 28
18 18 17 16 16 17 18 19 19 20 20 21 22 23 23 23 23 23 23 24 24 24 24 23 22 22 22 23 23 23 21 20 18 18 20 22 24 26 28 28 29 29 30 30 30 30 31 31 32 33 34 35 36 37 38 38 39 39 39 39 38 37 35 33 31 30 28 26 24
17 17 17 17 17 18 19 21 22 22 22 23 22 22 22 22 22 22 22 22 21 20 19 20 21 22 23 23 22 20 19 18 18 20 22 24 26 27 28 29 29 29 29 30 30 30 31 31 32 34 35 36 37 37 38 38 38 37 36 35 34 32 30 28 27 26 24 23 22
17 18 18 18 19 20 21 22 22 22 22 21 20 20 20 20 20 20 19 19 19 20 21 23 24 24 23 22 19 18 18 18 20 22 24 26 27 28 29 29 29 29 29 29 29 30 31 32 33 35 36 36 36 36 36 35 34 33 32 31 29 28 27 26 25 24 22 21 21
18 18 18 19 19 20 20 21 20 20 19 18 18 18 18 18 17 18 19 21 22 24 25 25 25 23 21 19 18 18 19 20 22 24 26 27 28 28 29 29 29 28 28 29 30 31 32 33 34 35 35 35 34 34 32 31 30 29 28 27 27 26 26 25 24 23 22 21 22
17 18 18 19 19 18 18 18 17 16 16 16 16 16 16 17 19 21 24 25 26 26 26 25 22 20 18 18 18 19 21 23 25 26 27 28 28 28 28 28 28 28 29 29 31 32 33 34 34 34 33 32 31 29 28 27 26 25 25 25 26 26 26 25 24 22 22 22 24
16 16 17 17 16 16 15 15 14 14 14 14 16 17 19 22 24 26 27 27 25 24 23 22 20 19 19 19 21 22 24 25 26 27 27 27 27 27 27 27 28 28 29 30 31 33 33 34 33 32 30 28 26 25 23 23 23 23 24 25 25 25 25 24 23 23 24 25 27
16 16 15 15 14 13 13 13 13 14 15 17 20 22 24 25 26 26 25 24 23 22 21 20 20 20 21 22 23 25 26 26 26 26 26 25 25 26 26 27 28 29 30 31 32 33 33 32 31 28 25 23 21 21 20 21 22 23 23 24 25 25 25 25 25 26 28 30 30
17 16 15 15 14 13 13 14 16 17 19 21 23 24 24 24 24 23 22 22 21 20 20 21 21 22 23 24 25 25 25 25 25 25 24 24 24 25 26 27 29 30 31 32 33 33 32 30 27 24 22 20 19 18 19 20 22 23 23 24 25 26 27 27 28 30 32 33 34
16 16 15 15 15 15 16 17 19 20 21 21 21 21 21 21 21 21 21 21 21 21 22 23 23 24 25 25 25 25 24 24 23 23 23 23 24 25 27 28 29 31 32 32 32 32 30 27 24 21 19 18 18 18 19 20 22 23 24 25 26 27 29 30 30 32 33 34 34
Wind_Direction
324 323 321 320 318 316 315 315 315 316 317 318 320 322 326 329 332 334 334 330 320 304 283 263 243 223 207 198 195 194 196 198 201 204 207 210 213 215 217 218 220 222 226 231 237 243 249 253 256 259 263 269 276 283 288 290 293 295 296 294 291 288 287 287 288 289 290 292 292
325 324 322 320 318 317 316 316 316 317 318 318 320 322 326 329 332 333 332 326 317 300 274 241 216 202 195 193 193 195 198 201 204 207 210 212 215 218 220 222 226 232 238 245 250 253 256 258 262 267 273 279 284 287 290 294 299 300 295 291 289 288 289 289 290 291 291 291 292
325 324 322 320 318 317 316 316 317 317 317 318 319 322 324 327 329 329 325 318 310 294 263 230 207 199 196 196 198 200 202 205 208 211 213 215 218 222 228 235 243 251 255 257 257 258 260 265 272 279 283 286 288 291 297 302 301 295 291 289 289 289 290 290 290 290 291 291 291
325 324 322 319 318 317 316 315 315 315 315 316 318 319 320 323 323 321 316 309 299 284 267 248 220 207 203 204 207 209 211 214 216 218 221 225 231 240 249 256 261 263 263 262 261 262 267 275 281 285 288 290 295 301 303 300 295 291 289 289 289 289 289 289 290 290 290 291 291
325 323 321 319 318 316 315 314 314 313 313 314 314 314 313 315 315 312 305 295 283 270 263 257 237 221 215 217 221 225 228 231 233 237 241 247 253 259 263 265 265 265 265 266 268 271 276 282 286 290 295 299 300 298 295 293 291 290 289 288 288 289 289 290 291 291 292 292 292
325 323 321 319 317 315 314 313 313 312 312 311 311 309 306 305 305 300 291 283 274 266 259 253 241 232 228 231 235 239 242 245 248 251 254 257 260 262 263 263 264 265 267 271 275 280 283 287 293 297 299 296 293 291 291 291 290 289 289 289 290 291 292 293 293 293 294 294 294
325 323 321 318 316 314 313 312 311 310 308 306 302 300 298 295 294 290 282 278 273 269 265 261 253 247 245 245 246 246 247 249 250 252 254 256 257 258 260 262 265 269 272 277 282 286 290 295 297 295 292 291 290 290 291 291 290 290 290 291 292 293 294 294 294 295 295 295 295
324 322 320 317 315 313 311 309 307 304 301 295 290 288 288 287 287 284 281 279 278 278 279 277 274 270 265 260 257 255 254 253 254 254 256 257 259 261 264 268 272 276 280 285 289 293 296 296 293 291 291 291 291 291 291 291 291 291 292 293 293 294 294 294 294 295 295 295 294
323 321 318 315 312 310 307 304 300 296 292 287 282 281 282 284 281 279 280 282 283 286 288 288 285 282 276 270 265 262 260 259 259 260 262 264 267 270 274 278 282 287 290 294 296 297 296 293 291 290 291 291 291 291 291 291 292 292 293 293 293 294 294 294 294 294 294 294 294
320 318 316 313 309 306 302 298 294 290 286 283 278 278 280 280 277 277 280 283 286 288 289 289 287 282 276 270 266 264 263 263 264 267 270 275 279 283 287 290 293 296 299 299 298 296 293 291 290 290 290 291 291 291 292 292 292 293 293 293 293 293 293 293 293 294 294 294 293
318 316 314 311 307 303 298 292 288 285 282 279 275 274 274 275 275 277 281 284 285 286 287 286 283 276 270 266 264 264 265 267 270 276 283 289 293 296 299 300 301 300 298 295 293 291 290 289 290 290 290 290 291 292 292 293 293 293 293 293 293 293 293 293 293 293 293 293 293
317 315 313 309 304 298 293 288 284 280 277 275 272 271 271 272 274 277 280 281 282 283 284 283 278 272 266 264 263 265 268 273 281 290 297 301 303 304 304 301 297 292 288 287 288 288 289 289 289 290 290 291 292 293 293 293 293 293 293 293 293 292 292 292 292 293 293 293 293
316 314 312 307 301 294 288 283 278 275 273 272 270 271 272 272 274 276 278 281 283 284 283 281 277 271 267 265 266 269 276 287 297 304 307 308 307 305 300 293 288 284 284 285 287 287 288 288 289 290 291 292 292 292 292 292 292 292 292 292 292 292 292 292 293 293 293 294 294
315 313 309 303 297 290 284 279 275 273 271 270 271 271 273 274 277 280 283 287 289 288 286 281 276 271 268 268 271 279 290 301 307 310 310 308 306 301 295 288 285 284 285 286 287 287 287 288 289 290 291 291 291 290 290 290 290 291 291 291 291 291 292 293 293 294 294 294 294
313 310 305 299 293 288 282 278 274 273 271 269 271 272 273 276 281 286 289 290 292 290 285 277 270 267 266 269 278 290 300 305 306 306 305 304 303 299 293 289 287 287 287 287 287 287 287 288 288 289 289 289 289 289 289 289 290 290 290 291 292 293 293 294 295 295 295 295 295
314 309 303 298 293 288 284 279 276 273 272 271 272 274 276 280 286 289 290 288 287 283 277 270 263 260 264 273 286 295 300 301 300 300 300 302 302 300 297 293 292 290 289 288 287 286 286 287 287 287 288 288 288 289 289 290 290 291 291 292 293 294 294 295 295 296 296 295 295
313 308 303 299 294 289 285 281 278 275 274 274 275 278 281 285 289 291 289 285 279 273 267 264 261 262 270 282 291 295 297 297 296 298 301 304 304 301 297 294 292 290 288 287 287 287 287 287 287 287 288 288 289 290 290 291 291 292 293 293 294 295 295 295 296 296 295 295 295
311 307 302 297 293 289 285 282 279 277 276 277 279 282 287 291 294 293 290 284 276 269 263 263 266 273 281 288 291 293 293 294 297 301 303 302 299 295 293 290 289 288 288 288 288 288 288 288 288 289 289 290 290 291 291 292 292 293 294 294 294 295 295 295 295 295 295 295 294
309 305 300 295 291 288 285 282 281 280 279 281 283 287 291 294 295 293 289 284 278 273 270 272 278 283 286 288 288 289 291 295 299 299 296 293 291 289 288 288 288 288 288 289 289 289 289 290 290 291 291 291 291 291 292 292 293 293 293 294 294 294 294 294 294 294 294 294 293
308 303 298 293 290 287 285 284 283 282 283 284 286 288 291 293 294 293 290 286 282 280 280 283 285 286 284 283 285 288 293 294 292 288 286 285 285 285 286 287 288 289 289 289 290 290 291 291 291 292 292 292 292 292 292 292 292 292 292 292 292 293 293 293 293 293 293 293 293
306 300 295 292 290 288 287 285 284 284 284 285 287 288 290 291 290 288 285 283 283 285 287 288 286 281 277 277 281 286 286 284 280 279 280 281 283 285 286 288 289 289 289 289 290 290 291 291 291 291 291 291 291 291 292 292 292 292 292 292 292 292 292 293 293 293 292 292 292
304 299 295 292 290 289 288 286 286 285 285 286 286 287 288 288 286 283 281 282 284 287 288 286 281 274 269 271 275 277 276 275 274 276 278 280 283 285 287 289 290 290 290 290 290 290 290 290 290 290 291 291 291 291 292 292 292 293 293 293 293 293 292 292 292 292 292 292 293
304 300 295 292 291 291 290 289 288 287 287 286 286 286 285 284 283 282 282 284 287 288 287 282 274 268 266 268 271 272 272 272 273 275 278 280 284 287 289 291 292 292 291 291 291 291 291 290 290 291 291 292 292 293 293 293 294 294 294 294 293 293 293 293 293 293 293 293 293
304 299 295 293 292 292 292 291 290 288 287 286 285 284 283 281 281 282 283 285 286 285 281 273 267 264 264 266 267 268 269 270 272 274 276 280 284 288 292 295 296 295 294 293 292 292 292 292 293 293 293 293 294 294 294 294 294 295 295 295 294 294 294 294 293 293 294 294 293
303 298 295 293 293 294 294 293 291 289 287 285 284 282 281 281 281 282 283 283 282 278 271 264 260 259 260 260 261 263 265 267 269 272 275 279 284 289 295 297 298 297 295 294 293 293 293 293 294 295 295 295 295 295 295 295 295 295 296 296 296 296 295 295 295 295 295 295 294
299 295 293 292 293 295 295 294 293 290 288 285 284 282 281 281 280 280 279 278 273 266 259 254 252 253 254 256 257 259 261 265 268 272 276 281 286 292 297 298 297 296 295 295 294 294 294 294 294 295 295 296 296 296 296 296 297 297 297 297 297 297 297 297 296 296 296 296 295
296 293 292 293 294 296 296 296 294 292 289 286 284 282 281 279 277 275 273 268 261 255 251 250 250 252 253 255 257 259 262 266 271 276 281 287 294 299 301 299 296 295 294 294 294 294 294 294 295 295 296 296 297 297 298 298 299 299 299 299 299 299 298 298 298 297 297 297 297
294 292 292 293 295 296 296 295 293 291 289 286 283 280 277 274 272 268 263 258 254 252 251 251 252 254 255 257 259 263 267 271 276 282 289 296 303 305 303 297 294 293 293 293 294 294 294 295 295 296 297 298 298 299 300 300 301 301 301 300 300 299 299 298 298 298 298 298 298
293 292 292 293 295 296 296 294 292 290 288 285 281 277 273 270 267 263 258 256 254 254 253 253 254 255 257 259 262 266 271 278 285 292 300 307 310 307 300 294 292 292 292 293 294 294 295 296 297 298 299 299 300 301 302 302 302 302 301 300 300 299 299 299 298 298 298 298 298
291 290 291 293 296 297 297 295 292 289 286 281 277 273 270 267 264 261 259 258 257 256 255 255 256 257 258 261 265 271 279 288 296 305 311 313 309 303 296 293 292 292 293 293 294 295 296 297 298 300 301 302 302 303 303 303 302 302 301 300 299 299 299 299 298 298 298 298 298
290 289 291 294 297 298 297 294 290 286 281 277 272 269 266 265 263 262 261 260 259 257 257 257 258 259 261 264 272 281 291 301 309 315 315 311 303 297 294 292 293 293 294 295 296 297 299 300 301 302 303 303 304 304 304 303 302 301 300 300 299 299 299 298 298 298 298 298 299
289 289 291 293 295 295 293 290 285 281 276 272 269 267 266 265 264 263 261 260 258 257 256 257 258 262 269 277 287 297 306 313 317 316 310 303 297 295 293 293 294 295 297 298 299 300 301 302 303 304 304 305 305 304 304 303 302 301 300 299 299 299 298 298 298 297 298 299 300
286 287 288 289 290 289 287 284 281 277 273 270 268 267 266 264 262 260 258 256 256 256 258 262 268 277 287 296 304 311 316 319 316 310 302 298 295 295 295 295 296 298 299 300 301 302 303 304 305 305 306 306 305 305 304 303 302 301 300 299 299 298 298 297 297 297 298 299 299
281 281 282 282 282 282 281 279 278 275 273 271 269 267 264 262 259 257 256 256 259 265 273 282 291 299 306 312 317 320 319 316 309 303 299 297 296 296 297 297 298 299 300 301 302 303 304 305 306 306 307 306 306 305 304 303 301 301 300 299 298 297 297 296 296 296 296 297 297
276 275 275 276 276 277 277 277 276 275 273 270 266 263 261 259 260 262 265 270 278 287 295 302 308 314 318 322 323 320 315 308 303 300 298 297 297 298 298 299 300 301 302 303 304 305 306 306 307 308 308 307 306 305 304 302 301 300 299 298 297 296 295 294 294 294 294 295 296
275 274 274 274 275 276 277 276 275 272 268 264 261 259 260 262 270 279 286 292 297 301 306 311 316 320 322 321 318 312 306 302 300 299 298 298 299 299 299 300 301 302 303 304 305 306 307 308 309 309 309 308 306 304 303 302 301 300 299 297 296 295 294 293 293 293 293 294 294
277 277 277 278 279 280 278 275 271 266 262 260 262 266 272 280 288 295 300 304 307 310 313 315 318 319 317 313 308 304 301 299 299 299 299 299 299 300 300 301 302 303 304 305 306 307 308 310 311 310 309 307 305 304 303 302 301 300 299 298 297 295 295 294 294 294 293 292 291
278 280 282 283 283 281 276 271 267 264 266 272 277 284 290 295 299 303 306 309 311 313 314 315 314 312 309 306 302 300 299 299 299 299 299 299 299 300 301 302 303 304 305 306 307 309 311 312 312 311 309 306 304 303 303 302 302 301 301 300 299 298 298 298 298 298 297 295 293
278 281 283 283 281 276 272 270 273 277 282 288 293 296 300 302 305 307 309 311 312 312 311 310 307 305 303 301 299 298 298 298 298 298 299 299 300 301 303 304 305 305 306 308 309 311 313 313 312 310 308 305 303 303 303 304 303 303 302 302 303 303 304 306 307 306 304 302 302
281 282 282 280 278 277 278 281 287 291 294 298 300 302 304 305 307 308 309 310 309 307 305 303 301 300 299 298 298 298 298 298 298 298 299 300 302 303 305 306 307 307 308 309 311 313 314 314 312 309 306 303 303 304 305 305 305 304 304 305 308 310 311 312 311 309 306 306 306
287 287 287 286 286 288 291 295 298 300 303 304 305 306 307 308 308 307 307 305 303 301 299 298 298 298 297 298 298 298 298 298 298 299 300 302 304 306 307 308 308 309 310 311 313 315 315 313 310 307 304 303 304 304 305 306 306 306 307 310 312 313 313 311 308 305 304 304 306
Height
1496 1495 1494 1493 1492 1491 1489 1488 1487 1485 1484 1483 1481 1479 1478 1476 1475 1473 1472 1471 1469 1469 1468 1468 1468 1468 1469 1469 1469 1469 1469 1470 1470 1470 1471 1471 1471 1472 1472 1472 1472 1472 1472 1472 1472 1472 1473 1473 1473 1473 1473 1473 1473 1473 1473 1473 1473 1472 1473 1474 1474 1475 1475 1474 1474 1473 1473 1472 1472
1494 1494 1493 1492 1490 1489 1488 1486 1485 1484 1483 1481 1480 1479 1477 1476 1474 1473 1472 1471 1470 1469 1469 1469 1469 1469 1469 1469 1469 1469 1469 1469 1469 1469 1469 1470 1470 1470 1470 1471 1471 1471 1471 1472 1472 1472 1472 1472 1472 1472 1472 1472 1472 1472 1471 1471 1471 1471 1472 1473 1474 1473 1473 1472 1472 1471 1471 1470 1470
1493 1492 1491 1490 1489 1488 1486 1485 1484 1483 1482 1480 1479 1478 1477 1475 1474 1473 1472 1471 1470 1470 1469 1469 1469 1469 1469 1469 1469 1469 1469 1469 1469 1469 1469 1469 1469 1470 1470 1471 1471 1472 1472 1472 1472 1472 1471 1471 1471 1471 1471 1470 1470 1469 1469 1469 1471 1471 1472 1472 1472 1471 1471 1470 1470 1469 1469 1469 1468
1491 1490 1489 1489 1488 1486 1485 1484 1483 1482 1481 1480 1479 1478 1477 1475 1474 1473 1472 1471 1470 1470 1470 1470 1470 1470 1470 1470 1470 1470 1469 1469 1469 1469 1469 1469 1470 1470 1471 1472 1472 1472 1472 1471 1471 1470 1470 1470 1470 1469 1469 1468 1468 1468 1469 1469 1470 1471 1471 1470 1470 1470 1469 1469 1468 1468 1467 1466 1466
1489 1489 1488 1487 1486 1485 1484 1483 1482 1481 1480 1479 1478 1477 1476 1475 1474 1474 1473 1472 1471 1471 1470 1470 1470 1470 1470 1470 1470 1470 1470 1470 1470 1470 1470 1470 1470 1470 1470 1470 1470 1470 1470 1469 1469 1469 1469 1468 1468 1467 1467 1467 1467 1468 1469 1469 1469 1469 1469 1469 1469 1468 1467 1467 1466 1466 1465 1464 1464
1488 1487 1486 1485 1484 1484 1483 1481 1480 1479 1479 1478 1477 1476 1476 1475 1474 1474 1473 1472 1472 1471 1471 1471 1470 1470 1470 1470 1470 1470 1470 1470 1470 1469 1469 1469 1469 1469 1468 1468 1468 1468 1468 1468 1467 1467 1467 1466 1466 1466 1466 1467 1467 1467 1468 1468 1468 1467 1467 1467 1466 1466 1465 1465 1464 1464 1463 1462 1461
1486 1485 1484 1484 1483 1482 1481 1480 1479 1479 1478 1477 1476 1476 1475 1474 1474 1473 1473 1472 1472 1472 1471 1471 1471 1471 1470 1470 1469 1469 1469 1468 1468 1468 1467 1467 1466 1466 1466 1466 1466 1466 1466 1465 1465 1465 1465 1465 1465 1465 1466 1466 1466 1466 1466 1466 1466 1465 1465 1464 1464 1464 1463 1463 1462 1461 1460 1460 1459
1485 1484 1484 1483 1481 1480 1479 1479 1478 1477 1477 1476 1475 1474 1474 1474 1473 1472 1472 1472 1472 1472 1472 1472 1471 1471 1471 1470 1469 1468 1467 1467 1466 1465 1465 1464 1464 1464 1464 1464 1464 1464 1464 1464 1463 1463 1464 1464 1464 1464 1464 1465 1465 1465 1465 1465 1464 1464 1463 1463 1462 1462 1461 1460 1459 1459 1458 1458 1457
1484 1483 1483 1482 1480 1479 1479 1478 1477 1476 1475 1474 1474 1474 1473 1473 1472 1471 1471 1471 1471 1471 1471 1471 1471 1470 1470 1469 1468 1467 1466 1465 1464 1464 1464 1463 1463 1463 1463 1463 1462 1462 1462 1462 1462 1463 1463 1463 1464 1464 1464 1464 1464 1463 1463 1463 1462 1462 1461 1460 1459 1459 1459 1458 1457 1457 1456 1455 1455
1483 1482 1481 1481 1479 1479 1478 1476 1475 1475 1474 1474 1473 1472 1472 1472 1471 1470 1470 1470 1469 1469 1469 1469 1469 1468 1467 1466 1466 1465 1464 1464 1463 1463 1462 1462 1462 1462 1461 1461 1461 1461 1461 1462 1462 1462 1463 1463 1463 1463 1463 1462 1462 1462 1461 1461 1460 1459 1459 1458 1457 1457 1456 1456 1455 1454 1454 1453 1453
1482 1481 1480 1479 1479 1477 1476 1475 1474 1474 1473 1472 1472 1471 1471 1470 1470 1469 1469 1468 1468 1468 1467 1467 1466 1466 1465 1464 1464 1463 1463 1462 1462 1461 1461 1461 1461 1461 1461 1461 1461 1461 1461 1461 1462 1462 1462 1462 1462 1461 1461 1461 1460 1460 1459 1459 1458 1457 1456 1456 1455 1454 1454 1453 1453 1452 1452 1451 1450
1481 1480 1479 1478 1477 1476 1474 1474 1473 1472 1472 1471 1470 1470 1469 1469 1469 1468 1468 1467 1466 1466 1465 1465 1464 1464 1463 1463 1462 1462 1461 1461 1461 1461 1460 1460 1460 1460 1460 1460 1460 1460 1461 1461 1461 1461 1461 1460 1460 1459 1459 1459 1458 1458 1457 1456 1456 1455 1454 1454 1453 1452 1451 1451 1450 1450 1449 1449 1448
1479 1479 1477 1476 1475 1474 1473 1472 1471 1471 1470 1470 1469 1469 1469 1468 1467 1467 1466 1465 1465 1464 1464 1464 1463 1462 1462 1461 1461 1461 1460 1460 1460 1460 1460 1459 1459 1459 1459 1459 1459 1459 1459 1460 1460 1459 1459 1459 1458 1458 1457 1456 1456 1455 1455 1454 1454 1453 1452 1451 1450 1450 1449 1448 1448 1447 1447 1446 1445
1478 1477 1475 1474 1473 1472 1471 1470 1470 1469 1469 1469 1468 1468 1467 1467 1466 1465 1465 1464 1464 1463 1463 1462 1462 1461 1461 1460 1460 1460 1460 1460 1459 1459 1459 1459 1459 1459 1458 1458 1458 1458 1458 1458 1458 1458 1457 1457 1456 1455 1455 1454 1454 1453 1453 1452 1451 1450 1449 1449 1448 1447 1446 1446 1445 1444 1444 1443 1442
1476 1474 1474 1472 1471 1471 1470 1469 1469 1468 1468 1467 1467 1466 1466 1465 1465 1465 1464 1463 1463 1462 1462 1461 1460 1460 1460 1459 1459 1459 1459 1459 1459 1459 1459 1458 1458 1458 1457 1457 1457 1457 1457 1457 1456 1456 1455 1454 1454 1453 1453 1452 1451 1451 1450 1449 1449 1448 1447 1446 1445 1444 1444 1443 1443 1442 1441 1440 1440
1474 1473 1472 1471 1470 1469 1469 1468 1467 1467 1466 1466 1465 1465 1464 1464 1464 1464 1463 1462 1461 1461 1460 1460 1459 1459 1459 1459 1459 1459 1459 1459 1458 1458 1457 1457 1457 1456 1456 1456 1456 1456 1455 1455 1454 1454 1453 1453 1452 1451 1450 1449 1449 1448 1448 1447 1446 1445 1444 1444 1443 1442 1441 1440 1440 1439 1439 1438 1437
1473 1472 1471 1470 1469 1469 1468 1467 1466 1465 1465 1464 1464 1463 1463 1463 1462 1462 1462 1461 1460 1459 1459 1459 1459 1459 1458 1458 1458 1458 1458 1457 1457 1456 1456 1456 1455 1455 1455 1455 1454 1454 1454 1453 1452 1452 1451 1450 1450 1449 1448 1447 1446 1446 1445 1444 1443 1442 1442 1441 1440 1439 1439 1438 1437 1437 1436 1436 1435
1472 1471 1470 1469 1469 1468 1467 1466 1465 1464 1463 1463 1462 1462 1461 1461 1461 1461 1460 1460 1459 1459 1458 1458 1458 1458 1458 1458 1457 1457 1456 1456 1455 1455 1454 1454 1454 1454 1454 1453 1453 1452 1452 1451 1450 1450 1449 1448 1448 1447 1446 1445 1444 1443 1442 1441 1440 1440 1439 1438 1438 1437 1436 1436 1435 1434 1434 1433 1433
1471 1470 1469 1469 1468 1467 1466 1465 1464 1463 1462 1461 1460 1460 1460 1460 1459 1459 1459 1458 1458 1458 1458 1457 1457 1457 1457 1456 1456 1455 1455 1454 1454 1454 1454 1454 1453 1453 1452 1452 1451 1451 1450 1449 1448 1448 1447 1446 1445 1444 1443 1442 1441 1440 1439 1439 1438 1437 1436 1436 1435 1434 1434 1433 1433 1432 1432 1431 1430
1470 1469 1468 1467 1466 1465 1464 1464 1463 1462 1461 1460 1459 1459 1458 1458 1458 1458 1457 1457 1457 1457 1457 1457 1456 1456 1455 1455 1454 1454 1453 1453 1453 1453 1452 1452 1452 1451 1451 1450 1449 1449 1448 1447 1446 1445 1444 1444 1443 1442 1441 1440 1439 1438 1437 1436 1435 1435 1434 1434 1433 1432 1431 1431 1430 1430 1429 1428 1428
1469 1468 1467 1466 1465 1464 1464 1463 1462 1460 1459 1459 1458 1457 1457 1456 1456 1456 1456 1456 1455 1455 1455 1455 1454 1454 1454 1453 1453 1453 1452 1452 1452 1451 1451 1451 1450 1449 1449 1448 1447 1447 1446 1445 1444 1443 1443 1442 1441 1439 1439 1438 1437 1436 1435 1434 1433 1432 1432 1431 1430 1429 1429 1429 1428 1427 1426 1426 1425
1468 1467 1466 1465 1464 1463 1463 1462 1461 1459 1459 1457 1457 1456 1455 1455 1455 1454 1454 1454 1454 1454 1454 1453 1453 1453 1452 1452 1452 1451 1451 1451 1450 1450 1449 1449 1448 1448 1447 1446 1445 1445 1444 1443 1442 1441 1440 1439 1438 1437 1436 1435 1434 1434 1433 1432 1431 1430 1429 1428 1428 1427 1426 1426 1425 1424 1424 1423 1422
1466 1466 1465 1464 1463 1462 1462 1461 1460 1459 1458 1457 1456 1455 1454 1454 1454 1453 1453 1453 1453 1452 1452 1452 1451 1451 1451 1450 1450 1450 1449 1449 1449 1448 1448 1447 1446 1446 1445 1444 1444 1443 1442 1441 1440 1439 1438 1437 1436 1435 1434 1433 1432 1431 1430 1429 1428 1427 1426 1426 1425 1424 1424 1423 1422 1422 1421 1420 1419
1464 1464 1463 1463 1462 1461 1461 1460 1459 1458 1457 1456 1455 1454 1454 1453 1452 1452 1451 1451 1451 1450 1450 1450 1450 1450 1449 1449 1449 1448 1448 1447 1446 1446 1445 1445 1444 1444 1444 1443 1442 1441 1440 1439 1438 1437 1436 1435 1434 1433 1432 1431 1430 1429 1428 1427 1426 1425 1424 1423 1422 1421 1420 1420 1419 1419 1418 1417 1417
1463 1462 1462 1461 1461 1460 1459 1459 1458 1457 1456 1456 1455 1454 1453 1452 1451 1450 1449 1449 1449 1449 1449 1449 1448 1448 1447 1447 1446 1446 1445 1445 1444 1444 1443 1443 1442 1442 1441 1441 1440 1439 1439 1438 1436 1435 1434 1433 1432 1431 1429 1429 1427 1426 1425 1424 1424 1423 1421 1420 1419 1419 1417 1417 1416 1415 1415 1414 1414
1461 1460 1460 1460 1459 1459 1458 1458 1457 1456 1456 1455 1454 1453 1452 1451 1449 1449 1448 1447 1447 1447 1447 1446 1446 1445 1445 1444 1444 1444 1443 1443 1442 1442 1441 1440 1440 1440 1439 1439 1438 1438 1437 1435 1434 1433 1432 1431 1430 1429 1427 1426 1425 1424 1423 1422 1421 1420 1419 1418 1417 1416 1414 1414 1413 1412 1411 1411 1410
1460 1459 1459 1458 1458 1457 1457 1456 1456 1455 1455 1454 1454 1453 1451 1450 1448 1447 1446 1445 1445 1444 1444 1444 1443 1443 1443 1442 1442 1442 1441 1441 1440 1440 1439 1439 1438 1438 1437 1437 1436 1435 1434 1434 1432 1431 1430 1429 1428 1427 1425 1424 1423 1421 1420 1419 1418 1417 1416 1415 1414 1413 1412 1411 1409 1409 1408 1407 1406
1459 1458 1457 1457 1456 1456 1456 1455 1455 1454 1454 1453 1453 1452 1451 1449 1448 1446 1445 1444 1443 1442 1442 1442 1441 1441 1441 1440 1440 1440 1439 1439 1439 1438 1437 1437 1436 1436 1435 1435 1434 1433 1432 1431 1430 1429 1428 1426 1425 1424 1423 1422 1420 1419 1418 1417 1415 1414 1414 1412 1411 1410 1409 1408 1407 1405 1404 1403 1403
1458 1457 1456 1455 1455 1455 1454 1454 1454 1454 1453 1453 1452 1451 1450 1449 1447 1445 1443 1442 1441 1440 1440 1440 1440 1439 1439 1439 1438 1438 1438 1437 1437 1436 1435 1434 1434 1434 1433 1433 1432 1431 1430 1429 1428 1426 1425 1424 1423 1422 1421 1419 1418 1417 1415 1414 1413 1412 1411 1409 1409 1407 1406 1405 1404 1403 1401 1400 1399
1457 1456 1455 1454 1454 1454 1454 1453 1453 1453 1452 1451 1451 1450 1449 1448 1446 1444 1442 1440 1439 1439 1439 1438 1438 1438 1437 1437 1436 1436 1436 1435 1435 1434 1433 1432 1432 1431 1431 1430 1430 1429 1428 1426 1425 1424 1423 1422 1421 1419 1418 1417 1416 1414 1413 1412 1411 1409 1408 1407 1405 1404 1403 1402 1401 1400 1399 1398 1397
1455 1455 1454 1453 1453 1453 1452 1452 1452 1451 1451 1450 1449 1449 1448 1446 1445 1443 1441 1440 1439 1438 1437 1437 1436 1436 1435 1435 1435 1434 1434 1433 1433 1432 1431 1430 1430 1429 1429 1428 1428 1426 1425 1424 1423 1422 1421 1419 1418 1417 1416 1415 1414 1412 1411 1409 1408 1407 1405 1404 1403 1401 1400 1399 1398 1397 1396 1395 1394
1454 1454 1453 1452 1452 1451 1451 1451 1450 1450 1449 1449 1448 1447 1446 1445 1444 1442 1441 1439 1438 1436 1435 1435 1434 1434 1434 1434 1433 1433 1432 1431 1430 1429 1429 1429 1428 1428 1427 1426 1425 1424 1423 1422 1420 1419 1418 1417 1416 1415 1414 1412 1411 1410 1408 1407 1405 1404 1403 1401 1400 1399 1398 1396 1395 1394 1394 1393 1393
1453 1452 1452 1451 1450 1450 1449 1449 1449 1448 1448 1447 1446 1446 1445 1444 1442 1441 1439 1438 1436 1435 1434 1434 1434 1433 1433 1432 1431 1430 1429 1429 1428 1428 1428 1427 1426 1426 1425 1424 1423 1422 1421 1419 1418 1417 1416 1415 1414 1413 1411 1410 1409 1407 1406 1404 1403 1401 1399 1398 1397 1396 1395 1394 1393 1392 1392 1391 1391
1451 1450 1450 1449 1449 1449 1448 1448 1447 1447 1446 1445 1445 1444 1443 1442 1441 1439 1438 1437 1436 1435 1434 1434 1433 1432 1431 1430 1429 1428 1427 1427 1427 1426 1426 1425 1424 1424 1423 1422 1421 1420 1419 1417 1416 1415 1414 1413 1411 1410 1409 1408 1406 1404 1403 1401 1399 1398 1397 1395 1394 1393 1392 1392 1391 1391 1390 1390 1389
1449 1449 1448 1448 1447 1447 1446 1446 1445 1445 1444 1444 1443 1443 1442 1441 1440 1439 1438 1436 1435 1434 1433 1432 1430 1429 1428 1428 1427 1426 1426 1425 1425 1425 1424 1424 1423 1422 1421 1419 1419 1418 1417 1415 1414 1413 1412 1410 1409 1408 1406 1405 1403 1402 1400 1399 1397 1395 1394 1393 1392 1391 1390 1390 1389 1389 1389 1388 1388
1448 1447 1446 1446 1445 1445 1444 1444 1444 1444 1443 1443 1442 1441 1440 1440 1439 1438 1437 1436 1434 1433 1431 1430 1429 1428 1427 1426 1426 1425 1425 1424 1424 1424 1423 1422 1421 1419 1419 1418 1417 1416 1414 1413 1412 1411 1410 1409 1407 1406 1404 1402 1400 1399 1397 1396 1394 1393 1392 1391 1390 1389 1389 1388 1387 1387 1387 1386 1386
1446 1445 1444 1444 1444 1443 1443 1443 1443 1442 1442 1442 1441 1440 1440 1439 1438 1437 1436 1434 1433 1431 1430 1429 1428 1427 1426 1426 1425 1425 1424 1424 1423 1422 1421 1420 1419 1418 1417 1415 1414 1414 1413 1411 1410 1409 1408 1406 1405 1404 1402 1400 1398 1397 1395 1394 1393 1391 1390 1389 1388 1387 1387 1386 1385 1385 1385 1384 1384
1444 1443 1443 1443 1442 1442 1442 1442 1442 1441 1441 1441 1440 1440 1439 1438 1437 1436 1434 1433 1432 1430 1429 1428 1427 1427 1426 1425 1424 1424 1423 1422 1421 1420 1419 1418 1417 1416 1415 1414 1413 1412 1410 1409 1408 1407 1406 1404 1403 1401 1399 1398 1396 1395 1394 1392 1391 1390 1389 1388 1386 1385 1385 1384 1384 1383 1382 1382 1381
1443 1442 1442 1441 1441 1441 1441 1441 1441 1441 1440 1440 1439 1439 1438 1437 1436 1435 1434 1432 1431 1430 1429 1428 1427 1426 1425 1424 1424 1423 1422 1421 1420 1419 1418 1416 1415 1414 1413 1412 1410 1409 1409 1407 1406 1405 1404 1402 1401 1399 1398 1396 1395 1393 1392 1391 1389 1388 1387 1386 1385 1384 1383 1382 1381 1381 1379 1379 1378
1442 1441 1441 1440 1440 1440 1440 1440 1440 1440 1440 1439 1439 1438 1437 1436 1435 1434 1433 1432 1430 1429 1428 1427 1426 1425 1424 1423 1422 1421 1420 1419 1418 1417 1416 1415 1414 1412 1411 1410 1409 1407 1406 1405 1404 1403 1402 1400 1399 1397 1396 1394 1393 1392 1391 1389 1388 1387 1385 1384 1383 1382 1381 1380 1379 1378 1377 1376 1375
1441 1440 1440 1440 1440 1440 1440 1439 1439 1439 1439 1438 1437 1436 1435 1435 1434 1433 1432 1431 1430 1429 1428 1426 1425 1424 1423 1422 1421 1420 1419 1418 1417 1416 1414 1413 1412 1411 1409 1408 1407 1405 1404 1404 1403 1401 1400 1398 1397 1396 1394 1393 1392 1391 1389 1388 1387 1385 1384 1383 1381 1380 1379 1378 1377 1376 1374 1373 1372